GW4949 Weather Reports


Display with metric or nautical units.
time (UTC)temp
F
wind
direction
speed
MPH
gust
MPH
rain 1hr
in
rain 24hr
in
rain mn
in
humidity
%
barometer
mb
20260505054446 58 211 5.0 7.0 0.00 0.01 0.01 59 1008.8
20260505053944 59 199 3.0 3.0 0.00 0.01 0.01 57 1008.8
20260505053441 59 206 5.0 8.0 0.00 0.01 0.01 56 1008.8
20260505052938 59 206 3.0 3.0 0.00 0.01 0.01 56 1008.8
20260505052435 59 202 2.0 2.0 0.00 0.01 0.01 56 1008.8
20260505051932 59 185 1.0 1.0 0.00 0.01 0.01 55 1008.4
20260505051429 59 177 1.0 1.0 0.00 0.01 0.01 55 1008.4
20260505050927 59 192 2.0 5.0 0.00 0.01 0.01 54 1008.4
20260505050425 60 190 1.0 2.0 0.00 0.01 0.01 54 1008.4
20260505041352 59 152 1.0 1.0 0.00 0.01 0.01 52 1007.6
20260505040849 60 144 0.0 0.0 0.00 0.01 0.01 52 1007.6
20260505040347 60 165 0.0 0.0 0.00 0.01 0.01 50 1007.6
20260505035844 60 160 0.0 0.0 0.00 0.01 0.01 49 1007.6
20260505035339 59 202 1.0 1.0 0.00 0.01 0.01 52 1007.6
20260505034837 59 151 0.0 0.0 0.00 0.01 0.01 51 1007.6
20260505034333 59 154 0.0 0.0 0.00 0.01 0.01 50 1007.2
20260505033831 59 159 0.0 0.0 0.00 0.01 0.01 50 1006.8
20260505033327 59 165 0.0 0.0 0.00 0.01 0.01 50 1007.2
20260505032826 60 167 0.0 0.0 0.00 0.01 0.01 51 1007.2
20260505032322 60 154 0.0 0.0 0.00 0.01 0.01 51 1006.8
20260505031819 60 160 0.0 0.0 0.00 0.01 0.01 49 1006.8
20260505031315 60 117 1.0 1.0 0.00 0.01 0.01 49 1006.8
20260505030813 61 162 0.0 0.0 0.00 0.01 0.01 48 1006.8
20260505030309 62 169 0.0 0.0 0.00 0.01 0.01 48 1006.8
20260505025804 62 140 0.0 0.0 0.00 0.01 0.01 46 1006.8
20260505025304 62 158 0.0 0.0 0.00 0.01 0.01 46 1006.8
20260505024800 62 158 0.0 0.0 0.00 0.01 0.01 45 1006.5
20260505024257 62 160 0.0 0.0 0.00 0.01 0.01 45 1006.5
20260505023755 63 165 0.0 0.0 0.00 0.01 0.01 44 1006.5
20260505023251 63 160 0.0 0.0 0.00 0.01 0.01 44 1006.5
20260505022749 64 161 0.0 0.0 0.00 0.01 0.01 43 1006.5
20260505022246 64 165 0.0 0.0 0.00 0.01 0.01 43 1006.5
20260505021742 64 165 0.0 0.0 0.00 0.01 0.01 41 1006.5
20260505021240 65 169 0.0 0.0 0.00 0.01 0.01 42 1006.5
20260505020735 65 162 0.0 0.0 0.00 0.01 0.01 40 1006.5
20260505020231 65 168 0.0 0.0 0.00 0.01 0.01 40 1006.5
20260505015728 66 167 0.0 0.0 0.00 0.01 0.01 39 1006.5
20260505015225 66 120 1.0 1.0 0.00 0.01 0.01 38 1006.5
20260505014722 65 138 2.0 2.0 0.00 0.01 0.01 38 1006.5
20260505014220 66 178 1.0 1.0 0.00 0.01 0.01 39 1006.5
20260505013716 66 149 0.0 0.0 0.00 0.01 0.01 39 1006.5
20260505013213 66 151 1.0 2.0 0.00 0.01 0.01 37 1006.5
20260505012711 66 145 0.0 0.0 0.00 0.01 0.01 37 1006.5
20260505012208 66 131 0.0 0.0 0.00 0.01 0.01 37 1006.8
20260505011704 66 130 0.0 0.0 0.00 0.01 0.01 37 1006.5
20260505011201 66 143 0.0 1.0 0.00 0.01 0.01 37 1006.5
20260505010656 66 96 0.0 0.0 0.00 0.01 0.01 37 1006.5
20260505010154 66 137 0.0 0.0 0.00 0.01 0.01 36 1006.5
20260505005650 66 134 1.0 1.0 0.00 0.01 0.01 36 1006.5
20260505005147 66 90 1.0 1.0 0.00 0.01 0.01 36 1006.5
20260505004644 66 108 5.0 7.0 0.00 0.01 0.01 37 1006.5
20260505004140 66 98 2.0 2.0 0.00 0.01 0.01 37 1006.8
20260505003638 66 145 1.0 1.0 0.00 0.01 0.01 38 1006.5
20260505003135 66 106 3.0 5.0 0.00 0.01 0.01 38 1006.8
20260505002631 66 128 3.0 3.0 0.00 0.01 0.01 38 1006.8
20260505002129 66 109 3.0 3.0 0.00 0.01 0.01 38 1006.8
20260505001626 66 135 2.0 2.0 0.00 0.01 0.01 38 1007.2
20260505001124 66 28 3.0 3.0 0.00 0.01 0.01 38 1006.8
20260505000620 66 87 3.0 5.0 0.00 0.01 0.01 38 1007.2
20260505000119 66 84 4.0 6.0 0.00 0.01 0.01 39 1007.2
20260504235615 66 72 3.0 5.0 0.00 0.01 0.01 39 1007.2
20260504235111 66 36 7.0 10.0 0.00 0.01 0.01 39 1007.6
20260504234608 66 122 9.0 13.0 0.00 0.01 0.01 39 1007.6
20260504234106 66 88 5.0 10.0 0.00 0.01 0.01 42 1007.6
20260504233601 66 102 3.0 5.0 0.00 0.01 0.01 42 1008.0
20260504233058 66 86 5.0 7.0 0.00 0.01 0.01 43 1007.6
20260504232555 66 49 5.0 6.0 0.00 0.01 0.01 42 1008.0
20260504232053 66 60 3.0 7.0 0.00 0.01 0.01 43 1008.0
20260504231549 66 62 3.0 3.0 0.00 0.01 0.01 44 1008.0
20260504231045 65 100 6.0 9.0 0.00 0.01 0.01 43 1007.6
20260504230541 64 98 5.0 7.0 0.00 0.01 0.01 46 1007.6
20260504230041 63 79 2.0 2.0 0.01 0.01 0.01 49 1008.0
20260504225537 62 181 1.0 2.0 0.01 0.01 0.01 53 1008.0
20260504225034 62 152 1.0 2.0 0.01 0.01 0.01 50 1008.0
20260504224531 61 133 2.0 5.0 0.01 0.01 0.01 53 1008.4
20260504224028 61 167 0.0 0.0 0.01 0.01 0.01 50 1008.0
20260504223524 61 223 3.0 5.0 0.01 0.01 0.01 50 1008.0
20260504223020 60 195 3.0 3.0 0.01 0.01 0.01 51 1008.4
20260504222517 59 208 3.0 3.0 0.01 0.01 0.01 53 1008.0
20260504222015 60 191 5.0 6.0 0.01 0.01 0.01 61 1008.0
20260504221512 62 219 1.0 2.0 0.00 0.00 0.00 54 1008.4
20260504221009 65 228 6.0 8.0 0.00 0.00 0.00 48 1008.0
20260504220505 67 230 5.0 7.0 0.00 0.00 0.00 40 1008.0
20260504220002 68 233 4.0 7.0 0.00 0.00 0.00 36 1007.6
20260504215459 68 213 5.0 7.0 0.00 0.00 0.00 34 1007.6
20260504214956 67 217 4.0 6.0 0.00 0.00 0.00 34 1007.6
20260504214452 67 115 2.0 3.0 0.00 0.00 0.00 39 1007.6
20260504213948 68 143 4.0 6.0 0.00 0.00 0.00 36 1007.2
20260504213444 69 102 2.0 2.0 0.00 0.00 0.00 35 1007.6
20260504212942 70 156 2.0 3.0 0.00 0.00 0.00 33 1007.6
20260504212438 71 254 1.0 2.0 0.00 0.00 0.00 32 1007.2
20260504211936 71 193 2.0 2.0 0.00 0.00 0.00 29 1007.2
20260504211432 71 202 1.0 1.0 0.00 0.00 0.00 30 1007.2
20260504210930 71 233 3.0 3.0 0.00 0.00 0.00 29 1007.6
20260504210426 72 241 2.0 2.0 0.00 0.00 0.00 30 1007.6
20260504205923 72 254 1.0 3.0 0.00 0.00 0.00 30 1007.6
20260504205421 72 122 2.0 2.0 0.00 0.00 0.00 29 1007.2
20260504204919 72 139 0.0 0.0 0.00 0.00 0.00 29 1007.6
20260504204417 72 269 3.0 3.0 0.00 0.00 0.00 30 1007.6
20260504203916 73 221 2.0 2.0 0.00 0.00 0.00 31 1007.6
20260504203413 73 158 0.0 0.0 0.00 0.00 0.00 29 1007.6
20260504202908 73 146 1.0 1.0 0.00 0.00 0.00 28 1007.6
20260504202406 73 96 1.0 2.0 0.00 0.00 0.00 29 1007.6
20260504201902 72 153 2.0 2.0 0.00 0.00 0.00 30 1007.6
20260504201400 73 5 3.0 3.0 0.00 0.00 0.00 28 1008.0
20260504200857 72 173 2.0 3.0 0.00 0.00 0.00 29 1007.6
20260504200354 73 160 1.0 1.0 0.00 0.00 0.00 30 1008.0
20260504195850 74 168 2.0 3.0 0.00 0.00 0.00 29 1008.0
20260504195346 75 253 2.0 3.0 0.00 0.00 0.00 28 1008.0
20260504194843 75 188 1.0 1.0 0.00 0.00 0.00 24 1008.0
20260504194339 74 173 0.0 1.0 0.00 0.00 0.00 26 1008.0
20260504193835 75 221 3.0 3.0 0.00 0.00 0.00 26 1007.6
20260504193332 75 159 3.0 3.0 0.00 0.00 0.00 26 1008.0
20260504192831 73 199 1.0 2.0 0.00 0.00 0.00 27 1008.0
20260504192328 73 234 1.0 2.0 0.00 0.00 0.00 28 1008.0
20260504191827 74 174 2.0 2.0 0.00 0.00 0.00 28 1008.0
20260504191324 75 156 3.0 3.0 0.00 0.00 0.00 26 1008.0
20260504190819 75 201 4.0 5.0 0.00 0.00 0.00 27 1008.4
20260504190316 74 161 1.0 2.0 0.00 0.00 0.00 28 1008.4
20260504185812 76 205 0.0 1.0 0.00 0.00 0.00 26 1008.4
20260504185309 76 182 2.0 2.0 0.00 0.00 0.00 25 1008.8
20260504184805 74 149 0.0 1.0 0.00 0.00 0.00 25 1008.8
20260504184301 74 258 4.0 5.0 0.00 0.00 0.00 27 1008.8
20260504183757 74 168 0.0 0.0 0.00 0.00 0.00 27 1008.8
20260504183254 75 233 3.0 5.0 0.00 0.00 0.00 27 1008.4
20260504182752 74 166 2.0 2.0 0.00 0.00 0.00 27 1008.8
20260504182249 75 136 3.0 5.0 0.00 0.00 0.00 26 1008.8
20260504181747 75 187 1.0 1.0 0.00 0.00 0.00 26 1008.8
20260504181244 74 179 2.0 2.0 0.00 0.00 0.00 28 1009.1
20260504180743 74 212 4.0 5.0 0.00 0.00 0.00 28 1009.1
20260504180241 73 292 3.0 3.0 0.00 0.00 0.00 28 1008.8
20260504175739 74 271 3.0 3.0 0.00 0.00 0.00 29 1009.1
20260504175235 75 218 4.0 5.0 0.00 0.00 0.00 27 1009.1
20260504174733 74 191 2.0 3.0 0.00 0.00 0.00 29 1008.8
20260504174231 73 171 0.0 1.0 0.00 0.00 0.00 29 1009.1
20260504173727 73 175 5.0 6.0 0.00 0.00 0.00 30 1009.1
20260504173224 73 165 2.0 3.0 0.00 0.00 0.00 28 1009.1
20260504172721 73 163 1.0 2.0 0.00 0.00 0.00 29 1009.6
20260504172217 72 211 4.0 6.0 0.00 0.00 0.00 31 1009.6
20260504171714 72 202 2.0 2.0 0.00 0.00 0.00 32 1009.6
20260504171211 74 293 4.0 6.0 0.00 0.00 0.00 30 1009.6
20260504170707 73 166 0.0 0.0 0.00 0.00 0.00 31 1009.1
20260504170205 73 112 2.0 2.0 0.00 0.00 0.00 31 1009.6
20260504160124 70 161 0.0 0.0 0.00 0.00 0.00 30 1009.6
20260504151050 68 158 0.0 0.0 0.00 0.00 0.00 31 1009.9
20260504150548 65 151 0.0 1.0 0.00 0.00 0.00 32 1009.9
20260504141014 60 102 1.0 2.0 0.00 0.00 0.00 36 1010.2
20260504140510 60 90 1.0 1.0 0.00 0.00 0.00 36 1010.2
20260504130435 56 154 2.0 2.0 0.00 0.00 0.00 38 1010.2
20260504110316 57 147 1.0 1.0 0.00 0.00 0.00 33 1010.2
20260504100234 59 172 0.0 0.0 0.00 0.00 0.00 31 1009.9
20260504081627 60 211 1.0 2.0 0.00 0.00 0.00 33 1009.9
20260504081123 60 174 2.0 3.0 0.00 0.00 0.00 33 1009.9
20260504080620 61 216 6.0 8.0 0.00 0.00 0.00 31 1009.9
20260504080116 60 213 3.0 3.0 0.00 0.00 0.00 27 1009.6